| time (UTC) | temp F | wind direction | speed knots | gust knots | rain 1hr in | rain 24hr in | rain mn in | humidity % | barometer mb |
| 20260503042805 | 57 | 203 | 4.3 | 8.7 | 0.00 | 0.00 | 0.00 | 41 | 1011.9 |
| 20260503042305 | 57 | 198 | 5.2 | 7.8 | 0.00 | 0.00 | 0.00 | 41 | 1011.9 |
| 20260503041805 | 57 | 199 | 2.6 | 7.8 | 0.00 | 0.00 | 0.00 | 41 | 1011.9 |
| 20260503041305 | 57 | 206 | 5.2 | 8.7 | 0.00 | 0.00 | 0.00 | 41 | 1011.9 |
| 20260503040804 | 57 | 192 | 4.3 | 8.7 | 0.00 | 0.00 | 0.00 | 41 | 1011.9 |
| 20260503040305 | 57 | 166 | 4.3 | 7.8 | 0.00 | 0.00 | 0.00 | 41 | 1011.9 |
| 20260503035805 | 56 | 188 | 5.2 | 8.7 | 0.00 | 0.00 | 0.00 | 41 | 1011.9 |
| 20260503035305 | 56 | 197 | 4.3 | 7.0 | 0.00 | 0.00 | 0.00 | 40 | 1011.9 |
| 20260503034806 | 56 | 195 | 5.2 | 8.7 | 0.00 | 0.00 | 0.00 | 40 | 1011.9 |
| 20260503034305 | 56 | 205 | 4.3 | 7.8 | 0.00 | 0.00 | 0.00 | 40 | 1011.9 |
| 20260503033805 | 56 | 197 | 4.3 | 8.7 | 0.00 | 0.00 | 0.00 | 41 | 1011.9 |
| 20260503033305 | 56 | 192 | 5.2 | 10.4 | 0.00 | 0.00 | 0.00 | 40 | 1011.9 |
| 20260503032806 | 56 | 197 | 5.2 | 7.0 | 0.00 | 0.00 | 0.00 | 40 | 1011.9 |
| 20260503031805 | 57 | 194 | 3.5 | 7.0 | 0.00 | 0.00 | 0.00 | 39 | 1011.9 |
| 20260503031305 | 57 | 204 | 2.6 | 6.1 | 0.00 | 0.00 | 0.00 | 39 | 1011.9 |
| 20260503030805 | 57 | 215 | 2.6 | 7.0 | 0.00 | 0.00 | 0.00 | 40 | 1011.9 |
| 20260503030306 | 57 | 197 | 4.3 | 7.0 | 0.00 | 0.00 | 0.00 | 40 | 1011.9 |
| 20260503025805 | 57 | 193 | 5.2 | 7.0 | 0.00 | 0.00 | 0.00 | 41 | 1011.9 |
| 20260503025305 | 57 | 200 | 5.2 | 8.7 | 0.00 | 0.00 | 0.00 | 40 | 1011.9 |
| 20260503024806 | 57 | 176 | 4.3 | 6.1 | 0.00 | 0.00 | 0.00 | 41 | 1011.9 |
| 20260503024305 | 56 | 203 | 2.6 | 6.1 | 0.00 | 0.00 | 0.00 | 40 | 1011.9 |
| 20260503023305 | 56 | 187 | 4.3 | 7.0 | 0.00 | 0.00 | 0.00 | 41 | 1011.9 |
| 20260503022805 | 56 | 201 | 4.3 | 7.0 | 0.00 | 0.00 | 0.00 | 40 | 1011.9 |
| 20260503022305 | 56 | 166 | 4.3 | 6.1 | 0.00 | 0.00 | 0.00 | 40 | 1011.9 |
| 20260503021805 | 56 | 192 | 4.3 | 7.0 | 0.00 | 0.00 | 0.00 | 40 | 1011.9 |
| 20260503021305 | 56 | 180 | 4.3 | 7.0 | 0.00 | 0.00 | 0.00 | 40 | 1011.9 |
| 20260503020805 | 56 | 170 | 4.3 | 7.0 | 0.00 | 0.00 | 0.00 | 40 | 1011.9 |
| 20260503015805 | 57 | 185 | 3.5 | 6.1 | 0.00 | 0.00 | 0.00 | 39 | 1011.9 |
| 20260503015305 | 57 | 157 | 4.3 | 6.1 | 0.00 | 0.00 | 0.00 | 39 | 1011.9 |
| 20260503014805 | 57 | 155 | 4.3 | 6.1 | 0.00 | 0.00 | 0.00 | 39 | 1011.9 |
| 20260503014305 | 57 | 195 | 3.5 | 6.1 | 0.00 | 0.00 | 0.00 | 38 | 1011.9 |
| 20260503013805 | 57 | 192 | 3.5 | 6.1 | 0.00 | 0.00 | 0.00 | 38 | 1011.9 |
| 20260503013305 | 58 | 157 | 3.5 | 6.1 | 0.00 | 0.00 | 0.00 | 38 | 1011.9 |
| 20260503012306 | 58 | 154 | 4.3 | 6.1 | 0.00 | 0.00 | 0.00 | 37 | 1011.9 |
| 20260503011805 | 58 | 183 | 2.6 | 5.2 | 0.00 | 0.00 | 0.00 | 36 | 1011.9 |
| 20260503011305 | 58 | 174 | 2.6 | 5.2 | 0.00 | 0.00 | 0.00 | 36 | 1011.9 |
| 20260503010804 | 58 | 161 | 2.6 | 5.2 | 0.00 | 0.00 | 0.00 | 36 | 1011.9 |
| 20260503010305 | 58 | 205 | 1.7 | 5.2 | 0.00 | 0.00 | 0.00 | 36 | 1011.9 |
| 20260503005805 | 59 | 179 | 3.5 | 6.1 | 0.00 | 0.00 | 0.00 | 36 | 1011.9 |
| 20260503005305 | 59 | 185 | 2.6 | 6.1 | 0.00 | 0.00 | 0.00 | 35 | 1011.9 |
| 20260503004804 | 59 | 198 | 2.6 | 6.1 | 0.00 | 0.00 | 0.00 | 35 | 1011.9 |
| 20260503004305 | 59 | 165 | 2.6 | 6.1 | 0.00 | 0.00 | 0.00 | 35 | 1011.9 |
| 20260503003805 | 60 | 160 | 2.6 | 6.1 | 0.00 | 0.00 | 0.00 | 34 | 1011.9 |
| 20260503003304 | 60 | 180 | 2.6 | 6.1 | 0.00 | 0.00 | 0.00 | 34 | 1011.9 |
| 20260503002805 | 60 | 179 | 3.5 | 7.0 | 0.00 | 0.00 | 0.00 | 34 | 1011.9 |
| 20260503002305 | 60 | 177 | 1.7 | 6.1 | 0.00 | 0.00 | 0.00 | 33 | 1011.9 |
| 20260503001805 | 60 | 185 | 2.6 | 5.2 | 0.00 | 0.00 | 0.00 | 33 | 1011.9 |
| 20260503001305 | 61 | 212 | 2.6 | 5.2 | 0.00 | 0.00 | 0.00 | 33 | 1011.9 |